TimeCDT,TemperatureF,Dew PointF,Humidity,Sea Level PressureIn,VisibilityMPH,Wind Direction,Wind SpeedMPH,Gust SpeedMPH,PrecipitationIn,Events,Conditions,WindDirDegrees,DateUTC
12:53 AM,86.0,61.0,43,29.87,9.0,South,13.8,-,N/A,,Clear,170,2013-07-14 05:53:00
1:53 AM,84.0,61.0,46,29.88,9.0,SSE,11.5,-,N/A,,Clear,150,2013-07-14 06:53:00
2:53 AM,82.0,61.0,49,29.89,8.0,SE,20.7,27.6,N/A,,Scattered Clouds,140,2013-07-14 07:53:00
3:53 AM,78.1,61.0,56,29.89,8.0,SSE,18.4,-,N/A,,Clear,160,2013-07-14 08:53:00
4:53 AM,77.0,59.0,54,29.90,9.0,SE,19.6,26.5,N/A,,Overcast,140,2013-07-14 09:53:00
5:10 AM,75.2,60.8,61,29.93,9.0,SSE,24.2,28.8,N/A,Thunderstorm,Overcast,150,2013-07-14 10:10:00
5:22 AM,75.2,60.8,61,29.93,9.0,SE,20.7,32.2,N/A,Thunderstorm,Thunderstorm,140,2013-07-14 10:22:00
5:36 AM,71.6,62.6,73,29.98,1.8,WSW,13.8,-,0.15,Rain-Thunderstorm,Heavy Thunderstorms and Rain,240,2013-07-14 10:36:00
5:53 AM,69.1,64.0,84,29.90,2.5,SSE,19.6,-,0.34,Rain-Thunderstorm,Light Thunderstorms and Rain,160,2013-07-14 10:53:00
5:55 AM,69.8,64.4,83,29.95,4.0,SSE,18.4,-,0.00,Rain-Thunderstorm,Light Rain,150,2013-07-14 10:55:00
6:26 AM,69.8,64.4,83,30.00,7.0,ESE,12.7,-,0.00,Thunderstorm,Overcast,120,2013-07-14 11:26:00
6:53 AM,69.1,66.0,90,30.02,1.8,NE,9.2,19.6,0.16,Rain-Thunderstorm,Heavy Thunderstorms and Rain,50,2013-07-14 11:53:00
6:57 AM,68.0,64.4,88,30.06,0.8,Variable,3.5,19.6,0.16,Rain-Thunderstorm,Heavy Thunderstorms and Rain,0,2013-07-14 11:57:00
7:06 AM,68.0,64.4,88,30.05,1.0,SE,9.2,-,0.25,Rain-Thunderstorm,Heavy Thunderstorms and Rain,140,2013-07-14 12:06:00
7:25 AM,68.0,64.4,88,30.05,3.0,South,6.9,-,0.32,Rain-Thunderstorm,Rain,170,2013-07-14 12:25:00
7:36 AM,68.0,64.4,88,30.07,3.0,SSE,4.6,-,0.34,Rain-Thunderstorm,Light Rain,160,2013-07-14 12:36:00
7:50 AM,68.0,64.4,88,30.07,2.5,SW,6.9,-,0.37,Rain,Rain,230,2013-07-14 12:50:00
7:53 AM,68.0,64.9,90,30.02,2.5,SW,4.6,-,0.37,Rain,Rain,230,2013-07-14 12:53:00
8:07 AM,68.0,64.4,88,30.07,2.5,SW,6.9,-,0.02,Rain-Thunderstorm,Rain,230,2013-07-14 13:07:00
8:16 AM,68.0,64.4,88,30.06,2.5,SSW,9.2,-,0.05,Rain-Thunderstorm,Rain,210,2013-07-14 13:16:00
8:20 AM,68.0,64.4,88,30.06,2.5,SSW,9.2,-,0.06,Rain-Thunderstorm,Rain,210,2013-07-14 13:20:00
8:53 AM,66.9,64.0,90,30.00,2.0,SSW,10.4,-,0.16,Rain,Rain,200,2013-07-14 13:53:00
9:53 AM,66.9,64.0,90,30.01,2.0,ESE,4.6,-,0.06,Rain,Rain,120,2013-07-14 14:53:00
10:53 AM,66.9,64.0,90,29.98,1.8,SSW,10.4,-,0.13,Rain,Rain,210,2013-07-14 15:53:00
11:16 AM,66.2,64.4,94,30.03,2.5,South,8.1,-,0.06,Rain,Light Rain,190,2013-07-14 16:16:00
11:32 AM,66.2,64.4,94,30.01,1.2,South,10.4,-,0.15,Rain,Heavy Rain,170,2013-07-14 16:32:00
11:53 AM,66.9,64.0,90,29.98,1.8,South,9.2,-,0.20,Rain,Rain,180,2013-07-14 16:53:00
12:53 PM,66.9,64.0,90,29.96,1.8,SSW,11.5,-,0.16,Rain,Rain,210,2013-07-14 17:53:00
1:30 PM,68.0,64.4,88,30.04,2.5,Calm,Calm,-,0.08,Rain,Rain,0,2013-07-14 18:30:00
1:53 PM,66.9,64.0,90,29.97,2.5,SW,9.2,-,0.12,Rain,Rain,220,2013-07-14 18:53:00
2:07 PM,66.2,64.4,94,30.03,3.0,SSW,4.6,-,0.01,Rain,Light Rain,200,2013-07-14 19:07:00
2:53 PM,66.9,64.0,90,29.98,6.0,West,3.5,-,0.02,Rain,Light Rain,270,2013-07-14 19:53:00
3:23 PM,68.0,64.4,88,30.01,9.0,South,8.1,-,0.00,,Mostly Cloudy,190,2013-07-14 20:23:00
3:53 PM,68.0,63.0,84,29.97,9.0,SSE,4.6,-,0.00,,Overcast,150,2013-07-14 20:53:00
4:53 PM,69.1,63.0,81,29.97,10.0,Calm,Calm,-,N/A,,Overcast,0,2013-07-14 21:53:00
5:33 PM,71.6,62.6,73,30.01,10.0,Calm,Calm,-,N/A,,Overcast,0,2013-07-14 22:33:00
5:53 PM,70.0,62.1,76,29.98,10.0,Calm,Calm,-,N/A,,Mostly Cloudy,0,2013-07-14 22:53:00
6:10 PM,71.6,62.6,73,30.01,10.0,Calm,Calm,-,N/A,,Mostly Cloudy,0,2013-07-14 23:10:00
6:38 PM,71.6,62.6,73,30.01,10.0,Calm,Calm,-,N/A,,Mostly Cloudy,0,2013-07-14 23:38:00
6:53 PM,73.0,62.1,68,29.97,10.0,Calm,Calm,-,N/A,,Mostly Cloudy,0,2013-07-14 23:53:00
7:53 PM,73.0,62.1,68,29.98,10.0,NE,5.8,-,N/A,,Scattered Clouds,50,2013-07-15 00:53:00
8:53 PM,72.0,63.0,73,29.99,10.0,Calm,Calm,-,N/A,,Clear,0,2013-07-15 01:53:00
9:53 PM,71.1,63.0,75,30.03,10.0,SSE,8.1,-,N/A,,Partly Cloudy,150,2013-07-15 02:53:00
10:53 PM,66.9,57.9,73,30.06,10.0,SSE,10.4,20.7,N/A,,Mostly Cloudy,150,2013-07-15 03:53:00
11:53 PM,66.0,59.0,78,30.03,10.0,Calm,Calm,-,N/A,,Clear,0,2013-07-15 04:53:00